GPS BIIF-5 (PRN 30)

Last updated on Wed Aug 19 2026 00:03:21 GMT+0000 (Coordinated Universal Time)

1 39533U 14008A 26229.01167470 .00000002 00000+0 00000+0 0 9993 2 39533 53.6600 146.8382 0083793 231.6154 127.6493 2.00563767 90905
UTC large
Height (km)
Speed (km/s)
/
Latitude / Longitude
Inclination (degrees)
Orbital Period (minutes)
Azimuth
Elevation
Range (km)
Doppler Factor

Next 0 passes for location: London (51.5072 / 0.1276)

No passes found over London.
GPS BIIF-5 (PRN 30)